This is the latest recevied weather packets stored in our database for station/object K8JMX-13. If no packets are shown the sender has not sent any weather packets the latest 10 day(s).
| Time | Temp. | Humidity | Pressure | Rain* | Wind** | Luminosity | Snow |
|---|---|---|---|---|---|---|---|
| 1777474905 | 12.78° C | 91% | 1008.2 hPa | 0 mm | - | 76 W/m² | - |
| 1777474601 | 12.78° C | 92% | 1008.4 hPa | 0 mm | - | 88 W/m² | - |
| 1777474298 | 12.78° C | 91% | 1008.3 hPa | 0 mm | - | 86 W/m² | - |
| 1777473994 | 12.78° C | 91% | 1008.4 hPa | 0 mm | - | 57 W/m² | - |
| 1777473693 | 12.78° C | 92% | 1008.2 hPa | 0 mm | - | 72 W/m² | - |
| 1777473388 | 12.78° C | 92% | 1008.3 hPa | 0 mm | - | 69 W/m² | - |
| 1777473084 | 12.78° C | 92% | 1008.4 hPa | 0 mm | - | 92 W/m² | - |
| 1777472781 | 12.78° C | 92% | 1008.5 hPa | 0 mm | - | 48 W/m² | - |
| 1777472478 | 12.78° C | 92% | 1008.6 hPa | 0 mm | - | 40 W/m² | - |
| 1777472175 | 12.78° C | 92% | 1008.8 hPa | 0 mm | - | 33 W/m² | - |
| 1777471875 | 12.78° C | 92% | 1008.9 hPa | 0 mm | - | 27 W/m² | - |
| 1777471572 | 12.78° C | 92% | 1008.8 hPa | 0 mm | - | 37 W/m² | - |
| 1777471269 | 12.78° C | 92% | 1008.5 hPa | 0 mm | - | 48 W/m² | - |
| 1777470965 | 12.78° C | 92% | 1008.6 hPa | 0 mm | - | 53 W/m² | - |
| 1777470663 | 12.78° C | 92% | 1008.6 hPa | 0 mm | - | 47 W/m² | - |
| 1777470358 | 12.22° C | 92% | 1008.5 hPa | 0 mm | - | 67 W/m² | - |
| 1777470055 | 12.22° C | 92% | 1008.8 hPa | 0 mm | - | 50 W/m² | - |
| 1777469751 | 12.78° C | 92% | 1009.1 hPa | 0 mm | - | 44 W/m² | - |
| 1777469447 | 12.78° C | 92% | 1009.1 hPa | 0 mm | - | 47 W/m² | - |
| 1777469142 | 12.78° C | 92% | 1008.6 hPa | 0 mm | - | 62 W/m² | - |
| 1777468837 | 12.22° C | 92% | 1008.9 hPa | 0 mm | - | 59 W/m² | - |
| 1777468533 | 12.22° C | 92% | 1009 hPa | 0 mm | - | 43 W/m² | - |
| 1777468230 | 12.22° C | 92% | 1009 hPa | 0 mm | - | 59 W/m² | - |
| 1777467927 | 12.22° C | 92% | 1009 hPa | 0 mm | - | 76 W/m² | - |
| 1777467623 | 12.22° C | 92% | 1009.3 hPa | 0 mm | - | 57 W/m² | - |
* Rain latest hour (hover to see other rain measurements)
** Current wind speed in m/s (hover to see current wind gust speed)